Theta_e
356 362 368 367 365 365 365 365 365 363 361 361 361 362 362 363 363 364 363 363 363 363 363 362 359 359 354 355 357 358 358 357 355 353 353 352 352 350 349 351 351 346 352
358 362 367 367 366 365 365 365 364 362 361 362 362 362 362 362 363 364 363 363 364 365 362 360 358 357 355 356 356 356 355 356 356 353 352 353 351 350 350 351 356 350 351
357 361 364 367 366 365 364 365 363 361 361 361 361 362 362 362 363 364 363 363 363 363 360 359 356 356 354 355 355 355 354 353 353 353 353 345 345 349 348 349 350 351 350
359 360 361 367 367 365 365 364 362 361 361 361 362 362 362 362 363 364 363 363 362 361 360 358 355 354 354 355 355 354 353 352 352 352 351 350 341 349 349 349 348 349 350
362 361 364 366 366 366 365 363 361 361 361 362 362 362 362 362 363 363 363 362 361 358 357 356 356 357 355 354 354 354 351 352 354 353 348 345 341 348 350 349 347 347 347
361 360 364 365 365 366 364 363 361 361 362 361 361 362 362 362 363 363 363 362 360 357 356 357 358 358 357 356 355 354 354 356 356 349 352 347 344 353 352 350 349 348 348
359 364 362 365 365 365 365 363 362 362 361 361 361 362 362 362 361 362 361 360 359 357 357 357 357 357 357 357 356 354 352 354 348 344 347 345 346 353 354 351 350 348 346
361 364 361 364 364 364 364 363 362 361 361 361 361 362 362 361 361 361 360 359 358 357 357 357 357 357 357 357 356 353 353 352 347 344 343 350 350 355 356 354 353 352 350
359 361 359 359 362 363 363 362 361 361 360 360 360 360 360 360 360 360 359 358 357 358 358 357 356 356 356 356 355 353 353 352 346 343 344 349 354 357 357 356 355 355 355
354 357 356 358 358 360 361 362 361 361 361 360 360 360 359 360 360 359 357 358 357 357 358 358 357 356 355 354 354 353 353 352 345 342 342 349 355 357 356 356 356 357 357
353 355 354 354 356 355 356 360 361 361 361 360 360 360 356 354 356 355 354 356 358 357 357 357 357 356 355 354 354 354 354 344 339 341 341 353 355 357 356 355 355 354 357
349 351 352 353 351 350 351 357 358 358 358 358 358 358 355 353 353 351 352 357 358 357 356 355 356 356 354 343 345 352 346 341 337 337 338 348 348 349 348 348 350 351 356
352 352 350 352 353 349 350 354 352 353 353 354 355 356 354 350 353 349 351 350 353 354 348 350 349 346 341 340 338 343 343 342 338 338 343 347 348 349 348 349 351 353 353
348 349 350 348 352 358 353 350 348 349 350 350 351 355 353 351 353 350 348 349 349 348 345 344 341 339 337 338 338 337 342 344 339 337 341 348 349 349 350 350 352 354 354
342 350 350 346 355 355 357 353 348 351 350 350 351 354 354 351 353 353 351 350 349 346 346 344 342 341 340 338 337 337 338 339 339 338 337 350 347 347 348 350 351 353 355
350 337 336 347 355 359 358 358 357 362 360 359 356 353 356 356 357 355 356 355 352 352 348 346 344 346 342 341 340 341 341 338 338 337 336 339 347 347 348 350 350 352 354
341 335 336 348 352 354 356 358 357 360 358 361 359 364 357 359 360 356 355 353 353 354 359 357 355 354 348 346 343 343 340 340 339 339 340 337 338 345 345 347 349 350 351
350 348 351 345 352 355 360 360 359 360 362 358 355 357 359 361 360 361 358 353 355 359 354 352 351 349 348 346 343 342 340 341 341 340 341 339 342 340 345 345 347 349 351
340 347 351 355 357 355 359 360 361 363 356 353 345 350 353 350 353 348 349 350 353 352 354 355 352 347 346 347 348 347 344 344 344 345 346 347 347 346 345 349 345 346 348
341 347 353 354 360 361 359 361 360 358 362 362 357 357 352 354 348 337 330 340 346 350 351 351 350 350 348 346 346 343 343 345 344 344 346 347 348 349 349 348 346 345 346
347 349 349 353 358 357 356 348 348 348 351 354 356 358 356 350 346 335 329 339 346 345 346 343 332 326 335 339 336 335 338 339 341 332 339 347 345 347 349 349 348 346 344
344 348 349 351 356 359 355 354 353 350 347 349 353 360 359 357 353 345 347 349 345 343 333 330 327 323 331 331 331 324 317 317 326 333 343 343 345 347 346 347 347 348 348
342 347 349 351 352 352 358 353 354 352 351 345 348 349 354 356 357 356 355 352 349 335 330 329 325 322 322 327 331 323 316 314 321 329 335 340 342 347 345 346 345 346 346
337 339 339 341 344 343 350 349 352 347 344 341 341 342 343 345 347 346 350 348 346 331 324 326 329 323 329 325 333 332 329 330 323 320 331 336 340 343 342 343 342 345 343
333 332 334 335 335 337 337 338 340 339 337 339 339 336 338 340 345 341 339 339 343 336 333 334 328 324 334 333 333 333 331 329 331 327 321 324 332 338 339 339 340 340 340
328 328 331 331 332 333 333 333 332 332 332 329 330 329 331 330 332 338 331 334 335 336 337 337 341 339 338 338 336 335 332 328 327 329 327 327 328 330 333 333 335 340 341
Wind_Speed
17 15 14 16 19 19 16 16 15 15 16 14 14 14 13 12 12 13 13 12 12 11 10 10 8 9 9 11 13 12 11 10 10 12 11 11 10 7 7 7 3 11 10
21 17 16 15 17 18 17 15 15 15 16 15 14 14 13 12 12 12 12 11 11 12 11 10 10 9 9 10 10 9 8 6 7 8 9 10 8 6 5 9 16 10 9
19 15 16 17 18 18 17 16 15 15 15 15 14 13 13 13 12 12 12 11 11 11 11 10 10 10 9 9 8 7 4 3 3 4 7 7 7 6 5 7 9 9 8
19 13 14 14 16 18 18 17 17 16 15 14 14 13 12 12 12 12 11 11 11 12 11 10 10 10 9 8 7 6 2 2 2 4 6 8 9 8 5 5 5 5 5
17 13 15 13 15 16 17 17 18 17 16 15 15 14 13 11 10 10 10 10 10 11 11 10 9 8 9 8 6 3 2 4 7 9 10 4 7 9 7 4 4 4 3
17 16 16 14 15 15 17 17 17 17 17 16 16 14 14 13 11 9 9 9 9 10 10 10 9 7 7 7 6 3 3 5 8 9 7 9 8 11 9 5 1 4 3
17 16 16 15 14 15 16 16 17 17 17 16 16 15 14 13 12 10 8 8 7 8 9 10 10 9 7 6 6 3 3 7 7 10 3 6 10 13 10 7 3 1 1
19 16 14 15 14 14 15 16 16 17 16 16 15 15 14 13 12 12 10 9 7 7 8 8 8 9 9 8 7 6 4 6 9 9 3 8 14 13 12 8 6 5 5
20 16 14 14 14 14 15 16 16 16 15 15 14 13 14 13 13 12 11 10 9 8 8 9 9 8 6 7 6 5 5 7 6 7 10 7 14 13 11 9 8 7 7
17 18 16 14 15 14 13 15 16 16 16 14 13 12 11 12 11 12 11 11 10 10 10 9 10 10 10 9 7 7 7 8 8 9 8 6 16 14 12 9 9 9 9
16 18 18 16 14 14 15 13 13 14 13 12 11 11 10 7 9 11 11 14 11 11 10 10 10 9 9 10 11 12 11 5 9 7 3 14 13 12 11 9 7 8 10
13 18 18 16 14 14 13 13 11 11 9 8 8 9 7 8 9 11 13 14 14 12 11 10 10 10 9 6 7 14 6 8 7 6 2 15 13 11 10 9 8 9 10
16 12 17 17 14 14 13 9 6 6 7 7 10 9 8 7 6 8 6 7 6 10 6 9 8 6 8 7 7 7 10 10 7 4 6 14 13 12 11 9 10 10 11
14 11 18 14 7 3 10 10 9 8 8 8 9 11 8 6 6 7 5 9 9 7 9 7 7 9 10 9 9 8 10 9 4 3 9 14 14 12 11 11 11 12 12
14 15 11 17 6 7 3 4 9 8 9 9 10 11 9 7 5 5 5 6 8 8 10 9 8 9 9 10 9 8 7 5 4 3 3 14 14 13 13 14 15 15 15
14 19 10 13 5 3 3 4 4 4 1 5 5 8 10 6 4 3 3 3 3 3 5 9 7 6 10 8 8 7 7 6 6 6 4 6 14 13 14 16 17 17 16
15 16 18 17 19 13 5 2 1 1 3 2 2 3 8 6 3 6 2 3 4 4 5 5 3 4 3 4 7 8 9 8 6 7 6 4 5 16 17 18 18 18 18
18 23 24 21 18 17 10 8 6 5 4 4 7 6 3 5 4 4 5 6 6 4 4 3 4 4 4 4 6 7 7 7 10 10 8 7 6 6 12 18 17 19 19
9 11 11 16 17 13 8 8 7 9 8 7 6 7 2 9 7 10 8 11 9 4 4 5 3 8 7 5 7 7 8 6 9 9 10 9 9 7 5 10 19 19 21
11 11 8 12 15 10 7 3 1 5 2 2 7 6 7 5 10 9 4 16 17 7 6 7 8 4 3 4 9 9 14 11 8 12 6 3 5 7 7 8 7 9 21
9 9 9 8 12 7 7 6 6 6 6 4 5 4 8 7 10 10 8 16 16 8 4 9 7 9 9 11 8 8 6 14 7 6 11 8 7 7 6 6 5 5 6
12 11 9 8 6 2 3 2 2 1 1 1 2 1 4 5 13 11 11 11 4 2 8 9 4 3 3 5 4 5 7 15 12 10 5 12 12 7 9 11 9 8 5
12 9 10 10 8 7 3 4 3 2 1 1 2 3 5 5 1 6 6 7 3 7 8 6 8 8 5 5 9 3 2 8 5 10 13 12 9 6 6 5 5 5 5
11 10 10 10 7 7 8 7 8 5 5 4 4 6 5 7 5 6 4 6 2 4 6 8 8 7 9 6 3 11 15 9 6 8 4 4 8 7 6 4 5 5 5
10 9 8 8 8 7 9 10 7 6 4 2 4 7 6 5 2 3 3 2 5 3 4 7 5 9 8 6 8 7 10 12 16 11 9 11 5 5 6 7 10 8 8
10 10 8 7 7 7 8 9 9 8 6 5 6 4 4 6 5 7 9 7 6 4 4 4 3 9 10 9 9 8 7 8 9 9 11 12 11 9 9 7 6 5 6
Wind_Direction
128 134 127 128 129 132 135 134 130 125 122 121 121 117 112 109 107 105 103 106 112 115 114 110 99 96 85 71 68 68 70 74 82 89 96 95 90 82 74 46 321 89 92
130 136 129 132 133 134 135 134 131 130 129 130 128 124 120 118 117 114 113 113 113 116 116 111 105 102 97 92 87 84 85 94 106 115 120 110 104 93 73 52 74 96 93
127 127 137 138 140 139 139 136 134 133 133 133 130 130 131 130 128 122 123 121 118 121 122 116 112 113 109 106 103 100 106 128 130 164 185 159 119 111 88 71 85 99 103
128 141 136 138 142 144 143 140 138 138 137 134 132 134 132 133 135 133 132 131 126 125 124 123 121 120 120 121 122 121 172 243 265 248 235 237 134 134 108 86 90 105 125
132 152 130 139 141 146 144 145 142 142 141 140 140 140 138 139 139 137 136 134 133 133 132 128 126 128 130 132 125 133 251 310 315 292 255 168 122 137 136 145 155 154 120
139 152 137 141 142 147 147 147 145 145 145 145 146 145 145 147 145 143 141 138 141 141 137 135 133 137 137 138 137 155 277 308 305 278 261 86 100 150 151 174 5 113 117
150 127 142 143 145 147 149 149 147 147 147 149 149 149 152 151 149 147 144 144 149 148 150 146 145 149 153 157 158 169 272 299 297 289 254 141 128 156 156 167 185 191 205
135 147 147 141 142 145 148 148 148 147 151 151 154 155 155 156 155 153 154 156 161 161 157 154 157 163 165 171 176 183 234 289 304 304 293 98 146 159 156 170 196 205 232
145 143 156 157 151 149 148 148 149 147 152 153 156 159 159 161 161 160 162 164 166 169 170 168 171 176 185 188 193 208 238 278 291 287 290 128 155 158 159 174 198 218 223
153 139 159 159 161 161 157 149 150 151 153 155 155 159 164 164 167 170 168 172 175 176 180 184 187 185 187 196 212 223 230 261 266 269 274 147 157 160 163 184 207 224 226
159 148 161 165 167 168 156 155 148 151 150 149 155 162 158 186 182 182 197 176 183 186 192 194 200 203 203 206 210 215 219 229 243 232 206 147 158 160 162 187 221 237 246
155 163 158 154 173 182 160 151 163 160 164 174 178 173 201 218 180 201 194 179 184 191 199 205 211 211 211 231 213 217 214 228 239 255 144 156 157 162 166 186 218 243 238
166 168 150 160 171 185 145 155 168 161 167 175 180 173 206 215 212 201 180 178 185 196 205 202 203 216 220 224 243 183 205 218 224 230 152 153 164 170 169 191 217 230 237
92 73 10 3 121 258 133 153 167 170 176 175 187 183 189 222 223 189 190 186 188 188 202 208 204 203 212 219 240 258 211 205 211 229 157 166 177 172 176 201 217 225 234
104 74 75 130 298 269 125 160 168 180 177 189 178 183 189 212 230 201 215 198 189 200 193 204 207 196 200 209 219 236 256 260 250 256 166 180 186 182 191 204 215 223 225
111 102 97 303 317 295 20 3 102 97 133 167 160 181 193 201 239 213 218 274 256 227 214 203 213 193 192 188 206 226 242 250 226 221 213 202 202 196 202 210 214 221 226
140 137 142 176 226 247 175 169 314 133 146 82 291 155 193 202 246 299 257 251 275 270 306 292 220 248 210 194 198 205 212 214 217 232 234 246 209 214 215 214 214 218 225
146 160 169 165 191 197 173 175 191 185 78 30 352 330 288 167 224 198 278 271 231 228 223 246 323 318 225 230 241 234 229 207 206 210 212 214 221 241 224 228 222 219 222
143 152 187 158 155 187 179 177 183 167 147 155 168 249 287 352 356 351 306 285 281 271 267 265 163 185 268 304 269 234 231 221 217 208 206 211 216 224 216 212 218 220 222
161 165 192 148 152 165 156 101 101 82 92 154 185 205 128 137 152 182 333 318 291 294 278 293 306 321 320 307 309 338 343 330 349 344 305 266 240 237 240 237 227 223 223
149 123 119 104 148 152 156 169 189 169 182 187 204 201 139 170 177 178 206 208 225 228 295 16 24 14 351 350 341 347 326 314 348 208 271 279 270 267 259 247 231 245 246
80 81 79 87 110 151 207 139 73 60 105 175 66 118 266 183 179 194 208 222 225 334 60 33 22 346 325 10 341 2 2 330 307 312 243 255 257 244 249 246 236 230 230
69 64 65 62 58 19 18 111 109 97 143 287 335 350 21 358 48 186 236 237 244 80 66 312 316 269 228 213 163 171 106 229 289 268 259 245 241 234 231 256 271 270 277
79 65 58 48 51 39 356 57 43 43 40 23 9 31 17 8 36 25 333 281 203 174 199 196 184 221 234 210 238 196 223 251 238 279 287 291 266 245 246 251 248 242 250
90 81 74 72 71 56 46 35 79 56 64 357 7 15 353 349 324 329 346 68 64 178 217 223 189 203 233 250 227 228 224 247 256 250 265 271 260 257 228 233 238 237 247
122 109 103 93 78 67 68 61 63 57 34 18 16 343 344 4 350 48 24 13 16 10 345 349 262 237 246 250 250 244 235 238 236 242 247 252 254 254 252 257 252 239 235